Flag for New Zealand

Past Weather in Auckland, New Zealand — Yesterday and Last 2 Weeks

Now
66 °F

Broken clouds.


Feels Like: 66 °F
Forecast: 67 / 57 °F
Wind: 25 mph from Northwest

Location: Auckland Airport
Current Time: Sep 24, 2020 at 3:04:21 pm
Latest Report: Sep 24, 2020 at 2:00 pm
Visibility: N/A
Pressure29.86 "Hg
Humidity: 60%
Dew Point: 52 °F
Location of AucklandLocation

Past Weather in Auckland — Graph

°F

Auckland Temperature Yesterday

Maximum temperature yesterday: 66 °F (at 12:00 pm)
Minimum temperature yesterday: 48 °F (at 3:30 am)
Average temperature yesterday: 59 °F

High & Low Weather Summary for the Past Weeks

 TemperatureHumidityPressure
High66 °F (Sep 15, 9:30 am)100% (Sep 20, 2:00 am)30.42 "Hg (Sep 20, 2:00 am)
Low41 °F (Sep 12, 5:00 am)44% (Sep 12, 12:30 pm)29.86 "Hg (Sep 11, 3:00 am)
Average56 °F74%30.19 "Hg
* Reported Sep 9 1:00 pm — Sep 24 1:30 pm, Auckland. Weather by CustomWeather, © 2020

Note: Actual official high and low records may vary slightly from our data, if they occured in-between our weather recording intervals... More about our weather records

Auckland Weather History for the Previous 24 Hours

Scroll right to see more
 ConditionsComfort  
Time TempWeatherWind HumidityBarometerVisibility
1:30 pm
Thu, Sep 24
66 °FMostly cloudy.16 mph68%29.86 "HgN/A
1:00 pm64 °FMostly cloudy.18 mph73%29.86 "HgN/A
12:30 pm63 °FLight rain. Partly sunny.10 mph83%29.89 "HgN/A
12:00 pm63 °FPartly sunny.14 mph77%29.89 "HgN/A
11:30 am63 °FLight rain. More clouds than sun.13 mph77%29.89 "HgN/A
11:00 am63 °FMostly cloudy.17 mph77%29.89 "HgN/A
10:30 am63 °FMostly cloudy.14 mph77%29.92 "HgN/A
10:00 am63 °FPartly sunny.13 mph77%29.92 "HgN/A
9:30 am61 °FLight rain. Broken clouds.12 mph83%29.92 "HgN/A
9:00 am61 °FMostly cloudy.8 mph83%29.92 "HgN/A
8:30 am61 °FLight rain. Overcast.7 mph83%29.92 "HgN/A
8:00 am59 °FPartly sunny.9 mph88%29.92 "HgN/A
7:30 am59 °FOvercast.7 mph88%29.92 "HgN/A
7:00 am59 °FPartly sunny.6 mph88%29.92 "HgN/A
6:30 am59 °FLight rain. Partly sunny.6 mph88%29.92 "HgN/A
6:00 am59 °FLight rain. Passing clouds.8 mph88%29.92 "HgN/A
5:30 am59 °FPartly cloudy.9 mph88%29.92 "HgN/A
5:00 am59 °FMostly cloudy.8 mph88%29.89 "HgN/A
4:30 am59 °FPassing clouds.7 mph88%29.92 "HgN/A
4:00 am59 °FPassing clouds.8 mph88%29.92 "HgN/A
3:30 am61 °FPassing clouds.8 mph83%29.92 "HgN/A
3:00 am61 °FLight rain. Passing clouds.13 mph83%29.92 "HgN/A
2:30 am61 °FPartly cloudy.15 mph83%29.95 "HgN/A
2:00 am61 °FOvercast.16 mph83%29.95 "HgN/A
1:30 am61 °FMostly cloudy.9 mph83%29.95 "HgN/A
1:00 am61 °FMostly cloudy.9 mph83%29.95 "HgN/A
12:30 am61 °FMostly cloudy.10 mph83%29.95 "HgN/A
12:00 am61 °FPassing clouds.9 mph83%29.95 "HgN/A
11:30 pm
Wed, Sep 23
61 °FOvercast.9 mph83%29.98 "HgN/A
11:00 pm61 °FPassing clouds.13 mph83%29.98 "HgN/A
10:30 pm61 °FPassing clouds.6 mph83%29.98 "HgN/A
10:00 pm61 °FPassing clouds.8 mph83%29.98 "HgN/A
9:30 pm61 °FMostly cloudy.7 mph83%29.98 "HgN/A
9:00 pm61 °FOvercast.13 mph77%29.98 "HgN/A
8:30 pm61 °FMostly cloudy.10 mph77%29.98 "HgN/A
8:00 pm61 °FOvercast.12 mph77%29.98 "HgN/A
7:30 pm61 °FLight rain. Overcast.12 mph77%29.95 "HgN/A
7:00 pm63 °FLight rain. Passing clouds.15 mph73%29.95 "HgN/A
6:30 pm63 °FMild.16 mph68%29.95 "HgN/A
6:00 pm63 °FScattered clouds.16 mph64%29.95 "HgN/A
5:30 pm63 °FPartly sunny.17 mph64%29.98 "HgN/A
5:00 pm64 °FPartly sunny.17 mph56%29.98 "HgN/A
4:30 pm64 °FPartly sunny.14 mph60%29.98 "HgN/A
4:00 pm64 °FPartly sunny.14 mph60%29.98 "HgN/A
3:30 pm66 °FOvercast.17 mph56%29.98 "HgN/A
3:00 pm64 °FMore clouds than sun.17 mph56%30.01 "HgN/A
Weather by CustomWeather, © 2020

See weather overview